Location: Asheville, NC
(35.6000°N, 82.5500°W)
Time: 14:44:57
(UTC-05:00)

Vanguard 2 - Pass Details

Date: 13 December 2017
Orbit: 552 x 2940 km, 32.9° (Epoch: 16 January)

Event Time Altitude Azimuth Distance (km) Brightness Sun altitude
Rises 20:21:26 0° 272° (W) 2,903 11.5 -36.4°
Reaches altitude 10° 20:24:03 10° 261° (W) 1,874 10.3 -36.9°
Enters shadow 20:24:31 12° 257° (WSW) 1,708 10.0 -37.0°
Maximum altitude 20:27:33 28° 200° (SSW) 1,044 - -37.7°
Drops below altitude 10° 20:31:03 10° 140° (SE) 1,877 - -38.4°
Sets 20:33:42 0° 128° (SE) 2,911 - -38.9°
